Time,TemperatureF,DewpointF,PressureIn,WindDirection,WindDirectionDegrees,WindSpeedMPH,WindSpeedGustMPH,Humidity,HourlyPrecipIn,Conditions,Clouds,dailyrainin,SolarRadiationWatts/m^2,SoftwareType,DateUTC
2013-05-04 00:00:00,44.2,37.8,30.00,West,278,0.0,0.0,78,0.00,SCT,OVC,0.00,0.0,WeatherDisplay:10.37,2013-05-03 22:00:00,
2013-05-04 00:10:00,43.9,37.8,30.00,SW,235,0.0,0.0,79,0.00,FEW,OVC,0.00,0.0,WeatherDisplay:10.37,2013-05-03 22:10:00,
2013-05-04 00:20:00,43.5,37.4,30.00,SW,224,0.0,0.0,79,0.00,FEW,OVC,0.00,0.0,WeatherDisplay:10.37,2013-05-03 22:20:00,
2013-05-04 00:30:00,43.5,37.4,30.00,SW,223,0.0,0.0,79,0.00,FEW,OVC,0.00,0.0,WeatherDisplay:10.37,2013-05-03 22:30:00,
2013-05-04 00:40:00,43.5,37.4,30.00,SW,227,0.0,0.0,79,0.00,FEW,OVC,0.00,0.0,WeatherDisplay:10.37,2013-05-03 22:40:00,
2013-05-04 00:50:00,44.2,38.1,30.03,WSW,253,0.0,0.0,79,0.00,FEW,OVC,0.00,0.0,WeatherDisplay:10.37,2013-05-03 22:50:00,
2013-05-04 01:00:00,44.2,38.1,30.03,WSW,240,0.0,0.0,79,0.00,FEW,OVC,0.00,0.0,WeatherDisplay:10.37,2013-05-03 23:00:00,
2013-05-04 01:10:00,44.8,38.7,30.03,West,261,0.0,0.0,79,0.00,FEW,OVC,0.00,0.0,WeatherDisplay:10.37,2013-05-03 23:10:00,
2013-05-04 01:20:00,45.1,39.0,30.03,West,270,0.0,0.0,79,0.00,FEW,OVC,0.00,0.0,WeatherDisplay:10.37,2013-05-03 23:20:00,
2013-05-04 01:30:00,45.1,39.0,30.03,West,260,0.0,0.0,79,0.00,FEW,OVC,0.00,0.0,WeatherDisplay:10.37,2013-05-03 23:30:00,
2013-05-04 01:40:00,45.1,39.0,30.03,West,274,0.0,0.0,79,0.00,FEW,OVC,0.00,0.0,WeatherDisplay:10.37,2013-05-03 23:40:00,
2013-05-04 01:50:00,45.3,39.2,30.03,NW,319,0.0,0.0,79,0.00,FEW,OVC,0.00,0.0,WeatherDisplay:10.37,2013-05-03 23:50:00,
2013-05-04 02:00:00,45.5,39.4,30.03,North,354,0.0,0.0,79,0.00,FEW,OVC,0.00,0.0,WeatherDisplay:10.37,2013-05-04 00:00:00,
2013-05-04 02:10:00,45.9,39.7,30.03,NNW,329,0.0,0.0,79,0.00,BKN,OVC,0.00,0.0,WeatherDisplay:10.37,2013-05-04 00:10:00,
2013-05-04 02:20:00,45.9,39.7,30.03,West,273,0.0,0.0,79,0.00,BKN,OVC,0.00,0.0,WeatherDisplay:10.37,2013-05-04 00:20:00,
2013-05-04 02:30:00,45.9,39.7,30.00,WSW,256,0.0,0.0,79,0.00,BKN,OVC,0.00,0.0,WeatherDisplay:10.37,2013-05-04 00:30:00,
2013-05-04 02:40:00,45.1,39.0,30.00,WSW,242,0.0,0.0,79,0.00,BKN,OVC,0.00,0.0,WeatherDisplay:10.37,2013-05-04 00:40:00,
2013-05-04 02:50:00,44.4,38.6,30.00,WSW,250,0.0,0.0,80,0.00,BKN,OVC,0.00,0.0,WeatherDisplay:10.37,2013-05-04 00:50:00,
2013-05-04 03:00:00,44.2,38.5,30.00,WSW,250,0.0,0.0,80,0.00,BKN,OVC,0.00,0.0,WeatherDisplay:10.37,2013-05-04 01:00:00,
2013-05-04 03:10:00,43.0,37.2,30.00,WSW,250,0.0,0.0,80,0.00,FEW,OVC,0.00,0.0,WeatherDisplay:10.37,2013-05-04 01:10:00,
2013-05-04 03:30:00,42.1,36.0,30.00,NNW,335,0.0,0.0,79,0.00,FEW,OVC,0.00,0.0,WeatherDisplay:10.37,2013-05-04 01:30:00,
2013-05-04 03:40:00,42.3,36.2,30.00,NW,315,0.0,0.0,79,0.00,FEW,OVC,0.00,0.0,WeatherDisplay:10.37,2013-05-04 01:40:00,
2013-05-04 03:50:00,41.7,35.7,30.00,West,276,0.0,0.0,79,0.00,FEW,OVC,0.00,0.0,WeatherDisplay:10.37,2013-05-04 01:50:00,
2013-05-04 04:00:00,41.4,35.3,30.00,SW,235,0.0,0.0,79,0.00,FEW,OVC,0.00,0.0,WeatherDisplay:10.37,2013-05-04 02:00:00,
2013-05-04 04:10:00,41.0,35.0,30.00,WSW,244,0.0,0.0,79,0.00,FEW,OVC,0.00,0.0,WeatherDisplay:10.37,2013-05-04 02:10:00,
2013-05-04 04:20:00,41.4,35.3,30.00,West,270,0.0,0.0,79,0.00,FEW,OVC,0.00,0.0,WeatherDisplay:10.37,2013-05-04 02:20:00,
2013-05-04 04:30:00,41.2,35.2,30.00,WSW,258,0.0,0.0,79,0.00,FEW,OVC,0.00,0.0,WeatherDisplay:10.37,2013-05-04 02:30:00,
2013-05-04 04:40:00,41.0,35.0,30.00,WSW,250,0.0,0.0,79,0.00,FEW,OVC,0.00,0.0,WeatherDisplay:10.37,2013-05-04 02:40:00,
2013-05-04 04:50:00,40.8,35.1,30.00,SW,215,0.0,0.0,80,0.00,FEW,OVC,0.00,0.0,WeatherDisplay:10.37,2013-05-04 02:50:00,
2013-05-04 05:00:00,40.8,35.1,30.00,SW,215,0.0,0.0,80,0.00,FEW,OVC,0.00,0.0,WeatherDisplay:10.37,2013-05-04 03:00:00,
2013-05-04 05:10:00,41.2,35.5,30.00,SW,215,0.0,0.0,80,0.00,FEW,OVC,0.00,0.0,WeatherDisplay:10.37,2013-05-04 03:10:00,
2013-05-04 05:20:00,41.2,35.5,30.00,SW,215,0.0,0.0,80,0.00,FEW,OVC,0.00,0.0,WeatherDisplay:10.37,2013-05-04 03:20:00,
2013-05-04 05:30:00,41.2,35.5,30.00,SW,215,0.0,0.0,80,0.00,FEW,OVC,0.00,0.0,WeatherDisplay:10.37,2013-05-04 03:30:00,
2013-05-04 05:40:00,41.0,35.3,30.00,WSW,246,0.0,0.0,80,0.00,FEW,OVC,0.00,0.0,WeatherDisplay:10.37,2013-05-04 03:40:00,
2013-05-04 05:50:00,41.2,35.5,30.03,SW,235,0.0,0.0,80,0.00,FEW,OVC,0.00,0.0,WeatherDisplay:10.37,2013-05-04 03:50:00,
2013-05-04 06:00:00,41.2,35.5,30.03,SW,235,0.0,0.0,80,0.00,FEW,OVC,0.00,0.0,WeatherDisplay:10.37,2013-05-04 04:00:00,
2013-05-04 06:10:00,41.9,36.2,30.03,SW,235,0.0,0.0,80,0.00,OVC,OVC,0.00,0.0,WeatherDisplay:10.37,2013-05-04 04:10:00,
2013-05-04 06:20:00,42.4,36.7,30.03,SW,235,0.0,0.0,80,0.00,OVC,OVC,0.00,0.0,WeatherDisplay:10.37,2013-05-04 04:20:00,
2013-05-04 06:30:00,42.6,36.9,30.03,SW,235,0.0,0.0,80,0.00,OVC,OVC,0.00,0.0,WeatherDisplay:10.37,2013-05-04 04:30:00,
2013-05-04 06:40:00,43.5,37.8,30.03,SW,232,0.0,0.0,80,0.00,OVC,OVC,0.00,0.0,WeatherDisplay:10.37,2013-05-04 04:40:00,
2013-05-04 06:50:00,45.7,39.9,30.03,West,270,0.0,0.0,80,0.00,OVC,OVC,0.00,0.0,WeatherDisplay:10.37,2013-05-04 04:50:00,
2013-05-04 07:00:00,46.0,40.2,30.03,WSW,246,0.0,0.0,80,0.00,OVC,OVC,0.00,0.0,WeatherDisplay:10.37,2013-05-04 05:00:00,
2013-05-04 07:10:00,47.1,41.3,30.03,SW,222,0.0,0.0,80,0.00,OVC,OVC,0.00,0.0,WeatherDisplay:10.37,2013-05-04 05:10:00,
2013-05-04 07:20:00,47.1,41.3,30.03,SW,228,0.0,0.0,80,0.00,OVC,OVC,0.00,0.0,WeatherDisplay:10.37,2013-05-04 05:20:00,
2013-05-04 07:30:00,47.1,41.3,30.03,SW,225,0.0,0.0,80,0.00,OVC,OVC,0.00,0.0,WeatherDisplay:10.37,2013-05-04 05:30:00,
2013-05-04 07:40:00,47.8,42.0,30.03,SW,227,0.0,0.0,80,0.00,OVC,OVC,0.00,0.0,WeatherDisplay:10.37,2013-05-04 05:40:00,
2013-05-04 07:50:00,48.6,42.7,30.03,SE,145,0.0,0.0,80,0.00,OVC,OVC,0.00,0.0,WeatherDisplay:10.37,2013-05-04 05:50:00,
2013-05-04 08:00:00,48.9,43.0,30.03,SE,142,0.0,0.0,80,0.00,OVC,OVC,0.00,0.0,WeatherDisplay:10.37,2013-05-04 06:00:00,
2013-05-04 08:10:00,49.1,42.9,30.03,ESE,111,0.0,0.0,79,0.00,OVC,OVC,0.00,0.0,WeatherDisplay:10.37,2013-05-04 06:10:00,
2013-05-04 08:20:00,50.4,44.1,30.03,West,259,0.0,0.0,79,0.00,OVC,OVC,0.00,0.0,WeatherDisplay:10.37,2013-05-04 06:20:00,
2013-05-04 08:30:00,50.7,44.1,30.03,WSW,250,0.0,0.0,78,0.00,OVC,OVC,0.00,0.0,WeatherDisplay:10.37,2013-05-04 06:30:00,
2013-05-04 08:40:00,51.1,43.8,30.03,West,265,0.0,0.0,76,0.00,OVC,OVC,0.00,0.0,WeatherDisplay:10.37,2013-05-04 06:40:00,
2013-05-04 08:50:00,51.6,43.6,30.03,WNW,285,2.0,3.0,74,0.00,OVC,OVC,0.00,0.0,WeatherDisplay:10.37,2013-05-04 06:50:00,
2013-05-04 09:00:00,50.7,43.1,30.06,WSW,244,3.0,4.0,75,0.00,OVC,OVC,0.00,0.0,WeatherDisplay:10.37,2013-05-04 07:00:00,
2013-05-04 09:10:00,50.0,42.4,30.06,SW,227,3.0,3.0,75,0.00,-RA,OVC,0.00,0.0,WeatherDisplay:10.37,2013-05-04 07:10:00,
2013-05-04 09:20:00,50.5,42.6,30.06,SW,230,0.0,3.0,74,0.00,-RA,OVC,0.00,0.0,WeatherDisplay:10.37,2013-05-04 07:20:00,
2013-05-04 09:30:00,50.4,42.4,30.06,SW,232,1.0,1.0,74,0.00,-RA,OVC,0.00,0.0,WeatherDisplay:10.37,2013-05-04 07:30:00,
2013-05-04 09:40:00,50.2,42.2,30.06,SSW,210,2.0,3.0,74,0.00,-RA,OVC,0.00,0.0,WeatherDisplay:10.37,2013-05-04 07:40:00,
2013-05-04 09:50:00,50.2,42.6,30.06,WSW,253,3.0,4.0,75,0.00,-RA,OVC,0.00,0.0,WeatherDisplay:10.37,2013-05-04 07:50:00,
2013-05-04 10:00:00,50.0,42.4,30.06,WSW,252,2.0,3.0,75,0.00,-RA,OVC,0.00,0.0,WeatherDisplay:10.37,2013-05-04 08:00:00,
2013-05-04 10:10:00,50.0,42.4,30.06,SW,215,2.0,2.0,75,0.00,-RA,OVC,0.00,0.0,WeatherDisplay:10.37,2013-05-04 08:10:00,
2013-05-04 10:20:00,49.8,42.2,30.06,WSW,244,2.0,3.0,75,0.00,-RA,OVC,0.00,0.0,WeatherDisplay:10.37,2013-05-04 08:20:00,
2013-05-04 10:30:00,49.6,42.0,30.06,West,268,2.0,2.0,75,0.01,-RA,OVC,0.01,0.0,WeatherDisplay:10.37,2013-05-04 08:30:00,
2013-05-04 10:40:00,49.1,41.9,30.06,West,276,3.0,3.0,76,0.00,-RA,OVC,0.01,0.0,WeatherDisplay:10.37,2013-05-04 08:40:00,
2013-05-04 10:50:00,49.1,42.2,30.06,West,269,2.0,3.0,77,0.00,-RA,OVC,0.02,0.0,WeatherDisplay:10.37,2013-05-04 08:50:00,
2013-05-04 11:00:00,49.5,42.5,30.09,West,272,2.0,3.0,77,0.01,-RA,OVC,0.03,0.0,WeatherDisplay:10.37,2013-05-04 09:00:00,
2013-05-04 11:10:00,49.5,42.5,30.09,West,261,2.0,2.0,77,0.00,-RA,OVC,0.05,0.0,WeatherDisplay:10.37,2013-05-04 09:10:00,
2013-05-04 11:20:00,50.4,43.4,30.09,SSW,211,2.0,2.0,77,0.00,-RA,OVC,0.06,0.0,WeatherDisplay:10.37,2013-05-04 09:20:00,
2013-05-04 11:30:00,50.7,43.8,30.09,SW,224,3.0,4.0,77,0.00,-RA,OVC,0.06,0.0,WeatherDisplay:10.37,2013-05-04 09:30:00,
2013-05-04 11:40:00,51.8,44.8,30.09,SW,219,3.0,4.0,77,0.00,-RA,OVC,0.06,0.0,WeatherDisplay:10.37,2013-05-04 09:40:00,
2013-05-04 11:50:00,52.5,45.5,30.09,West,276,1.0,3.0,77,0.00,-RA,OVC,0.06,0.0,WeatherDisplay:10.37,2013-05-04 09:50:00,
2013-05-04 12:00:00,52.5,45.5,30.09,WSW,250,2.0,3.0,77,0.00,-RA,OVC,0.06,0.0,WeatherDisplay:10.37,2013-05-04 10:00:00,
2013-05-04 12:10:00,53.2,45.9,30.09,SSW,193,3.0,3.0,76,0.00,BKN,OVC,0.06,0.0,WeatherDisplay:10.37,2013-05-04 10:10:00,
2013-05-04 12:20:00,54.1,46.4,30.09,SSW,211,0.0,3.0,75,0.00,BKN,OVC,0.06,0.0,WeatherDisplay:10.37,2013-05-04 10:20:00,
2013-05-04 12:30:00,54.1,46.4,30.06,SSW,209,3.0,3.0,75,0.00,BKN,OVC,0.06,0.0,WeatherDisplay:10.37,2013-05-04 10:30:00,
2013-05-04 12:40:00,55.0,46.5,30.06,SSW,198,2.0,5.0,73,0.00,BKN,OVC,0.06,0.0,WeatherDisplay:10.37,2013-05-04 10:40:00,
2013-05-04 12:50:00,56.7,47.7,30.06,SW,220,2.0,2.0,72,0.00,BKN,OVC,0.06,0.0,WeatherDisplay:10.37,2013-05-04 10:50:00,
2013-05-04 13:00:00,56.8,47.5,30.06,SW,232,2.0,2.0,71,0.00,BKN,OVC,0.06,0.0,WeatherDisplay:10.37,2013-05-04 11:00:00,
2013-05-04 13:10:00,56.5,46.4,30.06,SW,233,3.0,5.0,69,0.00,FEW,OVC,0.06,0.0,WeatherDisplay:10.37,2013-05-04 11:10:00,
2013-05-04 13:20:00,55.8,46.9,30.09,WSW,251,5.0,5.0,72,0.00,FEW,OVC,0.06,0.0,WeatherDisplay:10.37,2013-05-04 11:20:00,
2013-05-04 13:30:00,56.1,47.2,30.06,WSW,252,3.0,5.0,72,0.00,FEW,OVC,0.06,0.0,WeatherDisplay:10.37,2013-05-04 11:30:00,
2013-05-04 13:40:00,58.1,48.4,30.06,WSW,247,2.0,4.0,70,0.00,FEW,OVC,0.06,0.0,WeatherDisplay:10.37,2013-05-04 11:40:00,
2013-05-04 13:50:00,57.4,47.7,30.06,West,263,3.0,6.0,70,0.00,FEW,OVC,0.06,0.0,WeatherDisplay:10.37,2013-05-04 11:50:00,
2013-05-04 14:00:00,57.2,47.5,30.06,West,262,5.0,5.0,70,0.00,FEW,OVC,0.06,0.0,WeatherDisplay:10.37,2013-05-04 12:00:00,
2013-05-04 14:10:00,58.6,48.9,30.06,West,277,3.0,5.0,70,0.00,FEW,OVC,0.06,0.0,WeatherDisplay:10.37,2013-05-04 12:10:00,
2013-05-04 14:20:00,60.1,49.1,30.09,West,263,3.0,5.0,67,0.00,FEW,OVC,0.06,0.0,WeatherDisplay:10.37,2013-05-04 12:20:00,
2013-05-04 14:30:00,59.0,47.7,30.06,West,263,5.0,5.0,66,0.00,FEW,OVC,0.06,0.0,WeatherDisplay:10.37,2013-05-04 12:30:00,
2013-05-04 14:40:00,59.9,49.3,30.06,WSW,250,2.0,5.0,68,0.00,FEW,OVC,0.06,0.0,WeatherDisplay:10.37,2013-05-04 12:40:00,
2013-05-04 14:50:00,59.0,48.4,30.06,West,263,5.0,5.0,68,0.00,FEW,OVC,0.06,0.0,WeatherDisplay:10.37,2013-05-04 12:50:00,
2013-05-04 15:00:00,59.0,48.4,30.06,NNW,345,6.0,6.0,68,0.00,FEW,OVC,0.06,0.0,WeatherDisplay:10.37,2013-05-04 13:00:00,
2013-05-04 15:10:00,60.1,48.7,30.06,North,5,3.0,3.0,66,0.00,FEW,OVC,0.06,0.0,WeatherDisplay:10.37,2013-05-04 13:10:00,
2013-05-04 15:20:00,60.8,49.4,30.06,North,2,1.0,3.0,66,0.00,FEW,OVC,0.06,0.0,WeatherDisplay:10.37,2013-05-04 13:20:00,
2013-05-04 15:30:00,62.1,49.7,30.06,North,357,0.0,1.0,64,0.00,FEW,OVC,0.06,0.0,WeatherDisplay:10.37,2013-05-04 13:30:00,
2013-05-04 15:40:00,63.1,50.3,30.06,NW,322,5.0,8.0,63,0.00,FEW,OVC,0.06,0.0,WeatherDisplay:10.37,2013-05-04 13:40:00,
2013-05-04 15:50:00,61.9,49.1,30.06,NW,317,6.0,6.0,63,0.00,FEW,OVC,0.06,0.0,WeatherDisplay:10.37,2013-05-04 13:50:00,
2013-05-04 16:00:00,61.5,48.8,30.06,NNW,329,5.0,6.0,63,0.00,FEW,OVC,0.06,0.0,WeatherDisplay:10.37,2013-05-04 14:00:00,
2013-05-04 16:10:00,60.8,48.1,30.06,NNW,333,5.0,5.0,63,0.00,SCT,OVC,0.06,0.0,WeatherDisplay:10.37,2013-05-04 14:10:00,
2013-05-04 16:20:00,62.8,49.6,30.06,WSW,258,3.0,5.0,62,0.00,SCT,OVC,0.06,0.0,WeatherDisplay:10.37,2013-05-04 14:20:00,
2013-05-04 16:30:00,62.2,48.6,30.06,WSW,258,3.0,4.0,61,0.00,SCT,OVC,0.06,0.0,WeatherDisplay:10.37,2013-05-04 14:30:00,
2013-05-04 16:40:00,62.6,48.5,30.06,WSW,245,3.0,5.0,60,0.00,SCT,OVC,0.06,0.0,WeatherDisplay:10.37,2013-05-04 14:40:00,
2013-05-04 16:50:00,65.7,50.0,30.06,SSW,200,3.0,4.0,57,0.00,SCT,OVC,0.06,0.0,WeatherDisplay:10.37,2013-05-04 14:50:00,
2013-05-04 17:00:00,63.9,48.8,30.06,SW,225,2.0,3.0,58,0.00,SCT,OVC,0.06,0.0,WeatherDisplay:10.37,2013-05-04 15:00:00,
2013-05-04 17:10:00,63.0,48.9,30.06,West,281,1.0,1.0,60,0.00,FEW,OVC,0.06,0.0,WeatherDisplay:10.37,2013-05-04 15:10:00,
2013-05-04 17:20:00,62.6,48.5,30.06,WSW,256,0.0,3.0,60,0.00,FEW,OVC,0.06,0.0,WeatherDisplay:10.37,2013-05-04 15:20:00,
2013-05-04 17:30:00,63.5,49.4,30.06,West,272,1.0,2.0,60,0.00,FEW,OVC,0.06,0.0,WeatherDisplay:10.37,2013-05-04 15:30:00,
2013-05-04 17:40:00,63.0,48.4,30.06,SW,225,2.0,2.0,59,0.00,FEW,OVC,0.06,0.0,WeatherDisplay:10.37,2013-05-04 15:40:00,
2013-05-04 17:50:00,64.4,48.8,30.06,SW,230,3.0,3.0,57,0.00,FEW,OVC,0.06,0.0,WeatherDisplay:10.37,2013-05-04 15:50:00,
2013-05-04 18:00:00,62.8,47.8,30.06,SW,230,3.0,3.0,58,0.00,FEW,OVC,0.06,0.0,WeatherDisplay:10.37,2013-05-04 16:00:00,
2013-05-04 18:10:00,61.7,47.2,30.06,SW,235,3.0,3.0,59,0.00,FEW,OVC,0.06,0.0,WeatherDisplay:10.37,2013-05-04 16:10:00,
2013-05-04 18:20:00,61.9,49.1,30.06,SW,235,5.0,5.0,63,0.00,FEW,OVC,0.06,0.0,WeatherDisplay:10.37,2013-05-04 16:20:00,
2013-05-04 18:30:00,62.1,50.2,30.06,SW,235,1.0,5.0,65,0.00,FEW,OVC,0.06,0.0,WeatherDisplay:10.37,2013-05-04 16:30:00,
2013-05-04 18:40:00,61.7,49.8,30.06,SE,136,3.0,4.0,65,0.00,FEW,OVC,0.06,0.0,WeatherDisplay:10.37,2013-05-04 16:40:00,
2013-05-04 18:50:00,59.7,48.7,30.06,ENE,68,0.0,6.0,67,0.00,FEW,OVC,0.06,0.0,WeatherDisplay:10.37,2013-05-04 16:50:00,
2013-05-04 19:00:00,59.7,49.1,30.06,ENE,68,2.0,2.0,68,0.00,FEW,OVC,0.06,0.0,WeatherDisplay:10.37,2013-05-04 17:00:00,
2013-05-04 19:10:00,60.1,49.5,30.06,East,92,0.0,0.0,68,0.00,FEW,OVC,0.06,0.0,WeatherDisplay:10.37,2013-05-04 17:10:00,
2013-05-04 19:20:00,60.4,49.4,30.06,ESE,114,0.0,4.0,67,0.00,FEW,OVC,0.06,0.0,WeatherDisplay:10.37,2013-05-04 17:20:00,
2013-05-04 19:30:00,60.1,49.5,30.06,ESE,110,1.0,1.0,68,0.00,FEW,OVC,0.06,0.0,WeatherDisplay:10.37,2013-05-04 17:30:00,
2013-05-04 19:40:00,59.0,48.8,30.06,East,100,0.0,2.0,69,0.00,FEW,OVC,0.06,0.0,WeatherDisplay:10.37,2013-05-04 17:40:00,
2013-05-04 19:50:00,57.6,48.2,30.06,ESE,109,0.0,0.0,71,0.00,FEW,OVC,0.06,0.0,WeatherDisplay:10.37,2013-05-04 17:50:00,
2013-05-04 20:00:00,57.2,48.3,30.06,East,86,1.0,1.0,72,0.00,FEW,OVC,0.06,0.0,WeatherDisplay:10.37,2013-05-04 18:00:00,
2013-05-04 20:10:00,56.3,47.8,30.06,ESE,103,0.0,0.0,73,0.00,FEW,OVC,0.06,0.0,WeatherDisplay:10.37,2013-05-04 18:10:00,
2013-05-04 20:20:00,55.6,47.4,30.06,North,349,0.0,0.0,74,0.00,FEW,OVC,0.06,0.0,WeatherDisplay:10.37,2013-05-04 18:20:00,
2013-05-04 20:30:00,55.0,46.9,30.09,South,174,0.0,0.0,74,0.00,FEW,OVC,0.06,0.0,WeatherDisplay:10.37,2013-05-04 18:30:00,
2013-05-04 20:40:00,54.9,47.1,30.09,ESE,120,0.0,0.0,75,0.00,FEW,OVC,0.06,0.0,WeatherDisplay:10.37,2013-05-04 18:40:00,
2013-05-04 20:50:00,54.7,47.3,30.09,SSW,211,0.0,0.0,76,0.00,FEW,OVC,0.06,0.0,WeatherDisplay:10.37,2013-05-04 18:50:00,
2013-05-04 21:00:00,54.5,47.1,30.09,SSW,212,0.0,0.0,76,0.00,FEW,OVC,0.06,0.0,WeatherDisplay:10.37,2013-05-04 19:00:00,
2013-05-04 21:10:00,52.5,44.8,30.09,West,277,7.0,9.0,75,0.03,RA,OVC,0.09,0.0,WeatherDisplay:10.37,2013-05-04 19:10:00,
2013-05-04 21:20:00,49.8,42.2,30.12,West,267,5.0,7.0,75,0.09,RA,OVC,0.27,0.0,WeatherDisplay:10.37,2013-05-04 19:20:00,
2013-05-04 21:30:00,49.5,41.9,30.12,West,266,2.0,5.0,75,0.05,RA,OVC,0.31,0.0,WeatherDisplay:10.37,2013-05-04 19:30:00,
2013-05-04 21:40:00,49.3,42.0,30.12,South,187,0.0,2.0,76,0.01,RA,OVC,0.36,0.0,WeatherDisplay:10.37,2013-05-04 19:40:00,
2013-05-04 21:50:00,49.6,42.7,30.12,NNW,346,0.0,0.0,77,0.00,FEW,OVC,0.36,0.0,WeatherDisplay:10.37,2013-05-04 19:50:00,
2013-05-04 22:00:00,49.5,42.5,30.09,NNW,340,1.0,1.0,77,0.00,FEW,OVC,0.36,0.0,WeatherDisplay:10.37,2013-05-04 20:00:00,
2013-05-04 22:10:00,49.1,42.2,30.09,ENE,77,0.0,0.0,77,0.00,FEW,OVC,0.36,0.0,WeatherDisplay:10.37,2013-05-04 20:10:00,
2013-05-04 22:20:00,48.7,42.2,30.09,South,173,0.0,0.0,78,0.00,FEW,OVC,0.36,0.0,WeatherDisplay:10.37,2013-05-04 20:20:00,
2013-05-04 22:30:00,48.4,41.8,30.12,SE,138,0.0,0.0,78,0.00,FEW,OVC,0.36,0.0,WeatherDisplay:10.37,2013-05-04 20:30:00,
2013-05-04 22:40:00,48.0,41.5,30.12,South,190,0.0,0.0,78,0.00,FEW,OVC,0.36,0.0,WeatherDisplay:10.37,2013-05-04 20:40:00,
2013-05-04 22:50:00,48.4,41.8,30.12,South,189,0.0,0.0,78,0.00,FEW,OVC,0.36,0.0,WeatherDisplay:10.37,2013-05-04 20:50:00,
2013-05-04 23:00:00,48.7,42.5,30.12,NW,326,0.0,0.0,79,0.00,FEW,OVC,0.36,0.0,WeatherDisplay:10.37,2013-05-04 21:00:00,
2013-05-04 23:10:00,48.7,42.5,30.12,NNE,17,0.0,0.0,79,0.00,CLR,OVC,0.36,0.0,WeatherDisplay:10.37,2013-05-04 21:10:00,
2013-05-04 23:20:00,48.7,42.5,30.12,WSW,257,0.0,0.0,79,0.00,CLR,OVC,0.36,0.0,WeatherDisplay:10.37,2013-05-04 21:20:00,
2013-05-04 23:30:00,49.5,43.2,30.12,SW,231,2.0,3.0,79,0.00,CLR,OVC,0.36,0.0,WeatherDisplay:10.37,2013-05-04 21:30:00,
2013-05-04 23:40:00,49.5,43.2,30.12,NNW,346,2.0,2.0,79,0.00,CLR,OVC,0.36,0.0,WeatherDisplay:10.37,2013-05-04 21:40:00,
2013-05-04 23:50:00,49.8,43.6,30.12,NW,319,0.0,2.0,79,0.00,CLR,OVC,0.36,0.0,WeatherDisplay:10.37,2013-05-04 21:50:00,